Hourly Weather Porszewice

Today, 7 July, Tuesday

Time Temperature Precipitation Wind Pressure Humidity
00:00 +14°C° 0 mm 3 mps 744 mmHg 68%
01:00 +14°C° 0 mm 4 mps 745 mmHg 71%
02:00 +14°C° 0 mm 4 mps 745 mmHg 72%
03:00 +13°C° 0 mm 4 mps 745 mmHg 74%
04:00 +12°C° 0 mm 4 mps 745 mmHg 75%
05:00 +13°C° 0 mm 5 mps 745 mmHg 76%
06:00 +13°C° 0 mm 5 mps 746 mmHg 76%
07:00 +13°C° 0 mm 6 mps 746 mmHg 77%
08:00 +14°C° 0.1 mm 6 mps 746 mmHg 72%
09:00 +15°C° 0.1 mm 6 mps 746 mmHg 67%
10:00 +16°C° 0.1 mm 6 mps 746 mmHg 62%
11:00 +16°C° 0.1 mm 6 mps 746 mmHg 60%
12:00 +17°C° 0.1 mm 6 mps 746 mmHg 59%
13:00 +17°C° 0.1 mm 6 mps 746 mmHg 58%
14:00 +17°C° 0 mm 6 mps 746 mmHg 57%
15:00 +17°C° 0 mm 6 mps 746 mmHg 56%
16:00 +17°C° 0 mm 6 mps 746 mmHg 55%
17:00 +17°C° 0 mm 4 mps 746 mmHg 60%
18:00 +17°C° 0 mm 3 mps 746 mmHg 65%
19:00 +16°C° 0 mm 2 mps 746 mmHg 69%
20:00 +15°C° 0 mm 2 mps 746 mmHg 70%
21:00 +14°C° 0 mm 2 mps 746 mmHg 71%
22:00 +13°C° 0 mm 1 mps 746 mmHg 72%
23:00 +13°C° 0 mm 2 mps 746 mmHg 73%

Tomorrow, 8 July, Wednesday

Time Temperature Precipitation Wind Pressure Humidity
00:00 +12°C° 0 mm 2 mps 746 mmHg 74%
01:00 +11°C° 0 mm 3 mps 746 mmHg 74%
02:00 +11°C° 0 mm 3 mps 746 mmHg 76%
03:00 +11°C° 0 mm 3 mps 745 mmHg 77%
04:00 +11°C° 0 mm 4 mps 745 mmHg 79%
05:00 +12°C° 0 mm 4 mps 745 mmHg 78%
06:00 +12°C° 0 mm 4 mps 745 mmHg 78%
07:00 +13°C° 0 mm 4 mps 745 mmHg 77%
08:00 +14°C° 0.1 mm 4 mps 745 mmHg 75%
09:00 +14°C° 0.1 mm 5 mps 745 mmHg 74%
10:00 +15°C° 0.1 mm 5 mps 746 mmHg 72%
11:00 +15°C° 0 mm 5 mps 746 mmHg 73%
12:00 +14°C° 0 mm 5 mps 745 mmHg 74%
13:00 +14°C° 0 mm 5 mps 745 mmHg 74%
14:00 +14°C° 0 mm 4 mps 745 mmHg 77%
15:00 +14°C° 0 mm 4 mps 745 mmHg 79%
16:00 +13°C° 0 mm 4 mps 745 mmHg 81%
17:00 +13°C° 0 mm 4 mps 745 mmHg 83%
18:00 +13°C° 0 mm 4 mps 745 mmHg 84%
19:00 +13°C° 0 mm 3 mps 746 mmHg 86%
20:00 +12°C° 0 mm 3 mps 746 mmHg 88%
21:00 +12°C° 0 mm 3 mps 746 mmHg 90%
22:00 +12°C° 0 mm 3 mps 746 mmHg 93%
23:00 +11°C° 0 mm 3 mps 747 mmHg 94%

Day after tomorrow, 9 July, Thursday

Time Temperature Precipitation Wind Pressure Humidity
00:00 +11°C° 0 mm 3 mps 747 mmHg 95%
01:00 +11°C° 0 mm 3 mps 747 mmHg 96%
02:00 +11°C° 0 mm 3 mps 747 mmHg 97%
03:00 +10°C° 0 mm 3 mps 747 mmHg 97%
04:00 +10°C° 0 mm 2 mps 747 mmHg 97%
05:00 +11°C° 0 mm 3 mps 748 mmHg 93%
06:00 +12°C° 0 mm 3 mps 748 mmHg 89%
07:00 +14°C° 0 mm 3 mps 748 mmHg 85%
08:00 +16°C° 0 mm 3 mps 748 mmHg 79%
09:00 +17°C° 0 mm 3 mps 748 mmHg 73%
10:00 +18°C° 0 mm 2 mps 748 mmHg 67%
11:00 +19°C° 0.2 mm 3 mps 748 mmHg 66%
12:00 +19°C° 0.2 mm 3 mps 748 mmHg 66%
13:00 +20°C° 0.2 mm 4 mps 747 mmHg 65%
14:00 +20°C° 0.3 mm 4 mps 747 mmHg 66%
15:00 +20°C° 0.3 mm 3 mps 747 mmHg 66%
16:00 +20°C° 0.3 mm 3 mps 747 mmHg 67%
17:00 +20°C° 0.1 mm 3 mps 747 mmHg 71%
18:00 +19°C° 0.1 mm 2 mps 747 mmHg 76%
19:00 +18°C° 0.1 mm 2 mps 746 mmHg 80%
20:00 +18°C° 0 mm 2 mps 746 mmHg 83%
21:00 +17°C° 0 mm 2 mps 747 mmHg 86%
22:00 +16°C° 0 mm 2 mps 747 mmHg 88%
23:00 +17°C° 0 mm 2 mps 746 mmHg 88%

10 July, Friday

Time Temperature Precipitation Wind Pressure Humidity
00:00 +17°C° 0 mm 2 mps 746 mmHg 88%
01:00 +17°C° 0 mm 2 mps 746 mmHg 88%
02:00 +17°C° 0 mm 3 mps 745 mmHg 89%
03:00 +17°C° 0 mm 3 mps 745 mmHg 90%
04:00 +17°C° 0 mm 3 mps 745 mmHg 91%
05:00 +18°C° 0 mm 4 mps 745 mmHg 88%
06:00 +19°C° 0 mm 4 mps 744 mmHg 85%
07:00 +20°C° 0 mm 5 mps 744 mmHg 81%
08:00 +21°C° 0 mm 5 mps 744 mmHg 77%
09:00 +22°C° 0 mm 5 mps 744 mmHg 73%
10:00 +23°C° 0 mm 5 mps 743 mmHg 69%
11:00 +26°C° 0.2 mm 6 mps 743 mmHg 64%
12:00 +27°C° 0.2 mm 6 mps 742 mmHg 60%
13:00 +29°C° 0.2 mm 7 mps 742 mmHg 55%
14:00 +29°C° 0.1 mm 7 mps 741 mmHg 55%
15:00 +29°C° 0.1 mm 7 mps 741 mmHg 56%
16:00 +29°C° 0.1 mm 7 mps 740 mmHg 57%
17:00 +26°C° 2.4 mm 7 mps 741 mmHg 67%
18:00 +23°C° 2.4 mm 7 mps 741 mmHg 77%
19:00 +20°C° 2.4 mm 8 mps 741 mmHg 88%
20:00 +20°C° 1.8 mm 7 mps 742 mmHg 88%
21:00 +18°C° 1.8 mm 7 mps 743 mmHg 89%
22:00 +17°C° 1.8 mm 6 mps 744 mmHg 90%
23:00 +16°C° 0.6 mm 6 mps 744 mmHg 88%

11 July, Saturday

Time Temperature Precipitation Wind Pressure Humidity
00:00 +15°C° 0.6 mm 5 mps 745 mmHg 85%
01:00 +14°C° 0.6 mm 4 mps 745 mmHg 82%
02:00 +13°C° 0 mm 4 mps 746 mmHg 82%
03:00 +12°C° 0 mm 4 mps 746 mmHg 82%
04:00 +12°C° 0 mm 3 mps 747 mmHg 82%
05:00 +12°C° 0 mm 4 mps 747 mmHg 80%
06:00 +13°C° 0 mm 4 mps 747 mmHg 78%
07:00 +13°C° 0 mm 5 mps 748 mmHg 76%
08:00 +14°C° 0 mm 5 mps 748 mmHg 73%
09:00 +15°C° 0 mm 5 mps 748 mmHg 69%
10:00 +16°C° 0 mm 6 mps 749 mmHg 65%
11:00 +16°C° 0 mm 5 mps 749 mmHg 62%
12:00 +17°C° 0 mm 5 mps 749 mmHg 59%
13:00 +19°C° 0 mm 5 mps 749 mmHg 56%
14:00 +19°C° 0.1 mm 5 mps 749 mmHg 57%
15:00 +19°C° 0.1 mm 5 mps 749 mmHg 58%
16:00 +19°C° 0.1 mm 5 mps 749 mmHg 59%
17:00 +18°C° 0.1 mm 4 mps 749 mmHg 63%
18:00 +17°C° 0.1 mm 3 mps 749 mmHg 66%
19:00 +16°C° 0.1 mm 2 mps 749 mmHg 70%
20:00 +15°C° 0 mm 2 mps 749 mmHg 73%
21:00 +14°C° 0 mm 2 mps 749 mmHg 75%
22:00 +13°C° 0 mm 2 mps 750 mmHg 78%
23:00 +12°C° 0 mm 2 mps 750 mmHg 78%

12 July, Sunday

Time Temperature Precipitation Wind Pressure Humidity
00:00 +12°C° 0 mm 2 mps 750 mmHg 78%
01:00 +12°C° 0 mm 2 mps 750 mmHg 78%
02:00 +10°C° 0 mm 2 mps 750 mmHg 81%
03:00 +10°C° 0 mm 2 mps 750 mmHg 83%
04:00 +9°C° 0 mm 2 mps 750 mmHg 86%
05:00 +12°C° 0 mm 2 mps 751 mmHg 81%
06:00 +12°C° 0 mm 3 mps 751 mmHg 77%
07:00 +14°C° 0 mm 3 mps 751 mmHg 72%
08:00 +14°C° 0.2 mm 4 mps 751 mmHg 70%
09:00 +15°C° 0.2 mm 4 mps 751 mmHg 68%
10:00 +16°C° 0.2 mm 5 mps 751 mmHg 66%
11:00 +16°C° 0.1 mm 5 mps 751 mmHg 62%
12:00 +17°C° 0.1 mm 6 mps 751 mmHg 58%
13:00 +19°C° 0.1 mm 6 mps 751 mmHg 53%
14:00 +17°C° 0 mm 6 mps 751 mmHg 55%
15:00 +17°C° 0 mm 6 mps 751 mmHg 56%
16:00 +17°C° 0 mm 5 mps 751 mmHg 57%
17:00 +16°C° 0 mm 5 mps 751 mmHg 62%
18:00 +15°C° 0 mm 4 mps 751 mmHg 67%
19:00 +14°C° 0 mm 3 mps 751 mmHg 73%
20:00 +13°C° 0 mm 3 mps 752 mmHg 74%
21:00 +14°C° 0 mm 2 mps 752 mmHg 76%
22:00 +13°C° 0 mm 2 mps 752 mmHg 78%
23:00 +12°C° 0 mm 2 mps 752 mmHg 82%
Show more